This demonstration page uses our WeatherBlox Daily Observations layout. Learn more.

Left ArrowRight Arrow

Hourly Observations for July 31, 2022

Temp ( °F °C ) Dew Point ( °F °C ) Humidity (%) Winds ( mph kmh ) Pressure ( in mb ) Visibility ( mi km ) Precip ( " mm )
12:53 am 00:53 Clear 59 15 51 10.6 75 75 SE 5 7 30.09 1019 10 16 0.00 0.00
1:53 am 01:53 Mostly Clear 58 14.4 51 10.6 78 78 Calm 30.08 1019 10 16 0.00 0.00
2:53 am 02:53 Clear 57 13.9 51 10.6 81 81 NNW 3 6 30.07 1018 10 16 0.00 0.00
3:53 am 03:53 Clear 59 15 51 10.6 75 75 ESE 5 7 30.08 1019 10 16 0.00 0.00
4:53 am 04:53 Clear 56 13.3 50 10 81 81 E 3 6 30.10 1019 10 16 0.00 0.00
5:53 am 05:53 Clear 54 12.2 49 9.4 83 83 Calm 30.11 1020 10 16 0.00 0.00
6:53 am 06:53 Sunny 54 12.2 50 10 87 87 SE 3 6 30.14 1021 10 16 0.00 0.00
7:53 am 07:53 Sunny 59 15 51 10.6 75 75 Calm 30.14 1021 10 16 0.00 0.00
8:53 am 08:53 Sunny 70 21.1 50 10 49 49 NE 6 9 30.11 1020 10 16 0.00 0.00
9:53 am 09:53 Sunny 72 22.2 50 10 46 46 NNE 7 11 30.11 1020 10 16 0.00 0.00
10:53 am 10:53 Sunny 78 25.6 49 9.4 36 36 NE 5 7 30.10 1019 10 16 0.00 0.00
11:53 am 11:53 Sunny 81 27.2 51 10.6 35 35 W 5 7 30.09 1019 10 16 0.00 0.00
12:53 pm 12:53 Sunny 83 28.3 50 10 32 32 N 5 7 30.07 1018 10 16 0.00 0.00
1:53 pm 13:53 Sunny 85 29.4 46 7.8 26 26 Calm 30.04 1017 10 16 0.00 0.00
2:53 pm 14:53 Mostly Sunny 87 30.6 48 8.9 26 26 VRB 5 7 30.01 1016 10 16 0.00 0.00
3:53 pm 15:53 Sunny 81 27.2 50 10 34 34 S 21 33 30.02 1017 10 16 0.00 0.00
4:53 pm 16:53 Sunny 86 30 50 10 29 29 S 14 22 30.00 1016 10 16 0.00 0.00
5:53 pm 17:53 Sunny 80 26.7 48 8.9 33 33 SSW 14 22 30.02 1017 10 16 0.00 0.00
6:53 pm 18:53 Partly Cloudy 77 25 49 9.4 37 37 W 14 22 30.04 1017 10 16 0.00 0.00
7:53 pm 19:53 Sunny 76 24.4 48 8.9 37 37 SSW 10 17 30.01 1016 10 16 0.00 0.00
8:53 pm 20:53 Mostly Clear 74 23.3 49 9.4 41 41 Calm 29.99 1016 10 16 0.00 0.00
9:53 pm 21:53 Clear 71 21.7 52 11.1 51 51 NE 5 7 30.02 1017 10 16 0.00 0.00
10:53 pm 22:53 Clear 69 20.6 50 10 51 51 Calm 30.02 1017 10 16 0.00 0.00
11:53 pm 23:53 Clear 62 16.7 54 12.2 75 75 Calm 30.03 1017 10 16 0.00 0.00

Powered by AerisWeather